Torna al catalogo

STARLINK-5148

AttivoComunicazioniVLEO
NORAD 53978·PAYLOAD·🇺🇸 United States

Lanciato Oct 5, 2022 da Vandenberg Space Force Base

Loading…

Prossimi Passaggi (prossime 24 ore)

TLE

AggiornatoSource: CelesTrak SupGP

Epoca: Sep 15, 2026, 01:42 UTC

1 53978C 22125Q   26258.07131944  .00074722  00000+0  28138-2 0  2589
2 53978  53.1606  86.9013 0001144  95.4577 238.0953 15.26531053    11

Traccia STARLINK-5148 in tempo reale con AllMySat

Download on the App Store